Sterling, IL

11:50 PM CST on November 18, 2019 (GMT -0600)
Whiteside County-Bittorf

Weather History for KSQI - September, 2019

Change the Weather History Date:

Friday, September 6, 2019

  Actual Average Record
Temperature  
Mean Temperature 68 °F -  
Max Temperature 77 °F 77 °F 93 °F (2015)
Min Temperature 60 °F 54 °F 42 °F (2000)
Cooling Degree Days 4    
Growing Degree Days 18 (Base 50)    
Moisture  
Dew Point 62 °F    
Average Humidity 81    
Maximum Humidity 100    
Minimum Humidity 58    
Precipitation  
Precipitation 0.00 in - - ()
Sea Level Pressure  
Sea Level Pressure 29.65 in    
Wind  
Wind Speed 5 mph ()    
Max Wind Speed 15 mph    
Max Gust Speed 22 mph    
Visibility 10.0 miles    
Events      
Averages and records for this station are not official NWS values.
T = Trace of Precipitation, MM = Missing Value Source: Averaged Metar Reports

Daily Weather History Graph

Daily Weather History Graph

Search for Another Location

Airport or City:

Astronomy

Sep. 06, 2019 Rise Set
Actual Time 6:29 AM CDT 7:23 PM CDT
Civil Twilight 6:01 AM CDT 7:52 PM CDT
Nautical Twilight 5:27 AM CDT 8:25 PM CDT
Astronomical Twilight 4:52 AM CDT 9:00 PM CDT
Moon 2:44 PM CDT (9/6) No Moon Set
Length of Visible Light 13h 51m
Length of Day
12h 54m
First Quarter, 56% of the Moon is Illuminated
Sep 6
First Quarter
Sep 13
Full
Sep 21
Last Quarter
Sep 28
New
Oct 5
First Quarter

Hourly Weather History & Observations

Time (CDT) Temp. Dew Point Humidity Pressure Visibility Wind Dir Wind Speed Gust Speed Precip Events Conditions
12:56 AM 64.9 °F 62.1 °F 90% 29.57 in 10.0 mi SE 3.5 mph - N/A   Overcast
1:56 AM 66.0 °F 62.1 °F 87% 29.55 in 10.0 mi Calm Calm - N/A   Overcast
2:56 AM 66.0 °F 62.1 °F 87% 29.52 in 10.0 mi Variable 3.5 mph - N/A   Overcast
3:56 AM 66.0 °F 62.1 °F 87% 29.51 in 10.0 mi Calm Calm - N/A   Mostly Cloudy
4:56 AM 64.0 °F 62.1 °F 93% 29.50 in 10.0 mi Calm Calm - N/A   Mostly Cloudy
5:10 AM 64.4 °F 62.6 °F 94% 29.90 in 10.0 mi Calm Calm - N/A   Partly Cloudy
5:56 AM 63.0 °F 61.0 °F 93% 29.50 in 10.0 mi Calm Calm - N/A   Partly Cloudy
6:09 AM 62.6 °F 62.6 °F 100% 29.90 in 10.0 mi West 5.8 mph - N/A   Mostly Cloudy
6:22 AM 64.4 °F 62.6 °F 94% 29.90 in 10.0 mi WSW 5.8 mph - N/A   Overcast
6:56 AM 64.9 °F 64.0 °F 97% 29.51 in 10.0 mi West 6.9 mph - N/A   Overcast
7:36 AM 66.2 °F 64.4 °F 94% 29.92 in 10.0 mi WNW 9.2 mph - N/A   Scattered Clouds
7:56 AM 69.1 °F 64.9 °F 87% 29.52 in 10.0 mi NW 9.2 mph 19.6 mph N/A   Clear
8:45 AM 71.6 °F 64.4 °F 78% 29.94 in 10.0 mi NNW 11.5 mph 20.7 mph N/A   Mostly Cloudy
8:56 AM 71.1 °F 64.0 °F 78% 29.54 in 10.0 mi NNW 12.7 mph 20.7 mph N/A   Mostly Cloudy
9:56 AM 70.0 °F 63.0 °F 78% 29.56 in 10.0 mi NNW 12.7 mph - N/A   Overcast
10:56 AM 71.1 °F 63.0 °F 75% 29.57 in 10.0 mi NW 11.5 mph - N/A   Overcast
11:56 AM 73.0 °F 63.0 °F 71% 29.58 in 10.0 mi NW 15.0 mph - N/A   Overcast
12:22 PM 73.4 °F 62.6 °F 69% 29.98 in 10.0 mi NNW 13.8 mph 18.4 mph N/A   Overcast
12:56 PM 73.9 °F 62.1 °F 66% 29.59 in 10.0 mi NW 11.5 mph - N/A   Overcast
1:56 PM 75.0 °F 62.1 °F 64% 29.60 in 10.0 mi NNW 13.8 mph - N/A   Overcast
2:56 PM 77.0 °F 61.0 °F 58% 29.60 in 10.0 mi NNW 15.0 mph 21.9 mph N/A   Mostly Cloudy
3:56 PM 75.9 °F 61.0 °F 60% 29.60 in 10.0 mi North 15.0 mph - N/A   Scattered Clouds
4:56 PM 73.0 °F 60.1 °F 64% 29.61 in 10.0 mi North 10.4 mph - N/A   Mostly Cloudy
5:56 PM 72.0 °F 60.1 °F 66% 29.62 in 10.0 mi North 6.9 mph - N/A   Mostly Cloudy
6:56 PM 69.1 °F 59.0 °F 70% 29.64 in 10.0 mi North 4.6 mph - N/A   Partly Cloudy
7:56 PM 66.0 °F 60.1 °F 81% 29.65 in 10.0 mi North 4.6 mph - N/A   Mostly Cloudy
8:56 PM 63.0 °F 59.0 °F 87% 29.66 in 10.0 mi Calm Calm - N/A   Clear
9:56 PM 60.1 °F 59.0 °F 96% 29.67 in 10.0 mi Calm Calm - N/A   Clear
10:56 PM 62.1 °F 57.9 °F 86% 29.67 in 10.0 mi North 4.6 mph - N/A   Clear
11:56 PM 61.0 °F 57.9 °F 90% 29.68 in 10.0 mi North 3.5 mph - N/A   Clear